Weather in Merke

Kazakhstan     42°52′20″N   73°11′24″E
temp.,
°C
wind,
m/s
gust,
m/s
humid.,
%
clouds,
%
prec.,
mm/h
press.,
hPa
HPBL,
m
24 june, thu
thu2400:00+12ssw43542 0.0 101726
03:00+13s43535 0.0 101526
06:00+13s43501 0.0 101428
09:00+18n21400 0.0 1012626
12:00+22n44342 0.0 10101742
15:00+24nnw462929 0.1 10092431
18:00+22w252790 0.2 10102493
21:00+14w3466100 0.6 1015105
25 june, fri
fri2500:00+11ssw217621 0.9 101415
03:00+10s227764 0.1 101312
06:00+10s11736 0.1 101313
09:00+14nne317341 0.0 1013448
12:00+16n327183 0.6 10121005
15:00+16nnw226963 0.8 1012911
18:00+14w2475100 2.7 1013215
21:00+11nnw117385 0.4 101410
26 june, sat
sat2600:00+9sw11730 0.5 101412
03:00+9ssw22684 0.0 101311
06:00+9ssw226425 0.0 101212
09:00+14n31515 0.0 1013441
12:00+17n43437 0.0 10131153
15:00+19n443719 0.0 10131740
18:00+18nne323321 0.1 10141711
21:00+13sse33460 0.0 101620
27 june, sun
sun2700:00+11sse33540 0.0 101619
03:00+11sse32510 0.0 101415
06:00+12s33520 0.0 101419
09:00+19ne32410 0.0 1013402
12:00+22nne43360 0.0 1013944
15:00+24nne42310 0.0 10111448
18:00+24ne22300 0.1 10121416
21:00+17s43450 0.3 101427
28 june, mon
mon2800:00+16s54490 0.3 101335
03:00+16s54440 0.0 101230
06:00+16s53360 0.0 101231
09:00+23nne21310 0.0 1011484
12:00+25nne43280 0.0 10101290
15:00+27ne32254 0.1 10092180
18:00+26wnw122714 0.5 10091512
21:00+19s664130 0.0 101159